GFSFLT1_850_rhum_018.txt.gz
RH
70 72 63 59 66 62 72 72 71 67 69 61 63 60 57 55 50 40 34 33 36 39 39 36 37 38 47 54 50 40 27 39
63 68 65 66 62 45 66 74 77 73 62 57 62 55 56 52 41 35 34 37 40 36 35 38 32 23 20 22 19 26 33 34
59 60 65 67 53 61 79 82 81 74 60 58 52 49 50 41 39 34 34 38 40 37 39 32 24 18 17 20 26 30 38 56
56 63 63 63 60 56 67 78 73 72 61 62 50 50 49 48 42 40 42 45 44 40 35 24 21 13 12 11 13 28 48 67
45 53 60 59 61 60 59 63 68 65 65 63 58 54 55 51 42 42 48 52 40 39 25 15 12 10 7 7 11 28 53 74
41 42 46 56 61 66 66 66 70 68 72 85 67 60 58 55 52 53 57 50 40 31 19 13 9 7 8 14 27 56 76 82
43 41 48 59 66 67 77 77 76 78 80 72 70 64 60 56 58 60 56 45 41 26 14 11 10 9 11 31 54 72 61 56
51 45 52 62 63 68 77 80 82 77 66 64 62 63 56 58 60 57 47 41 27 15 10 9 10 12 21 48 64 77 59 58
49 54 55 62 62 70 80 81 83 69 60 58 56 56 60 60 52 49 45 30 16 11 13 16 14 21 37 62 78 72 74 66
49 53 54 56 66 75 70 68 80 73 60 62 62 59 56 52 48 50 36 18 18 38 20 13 13 24 37 54 72 78 70 80
50 54 55 61 64 66 68 72 71 66 68 67 66 61 54 51 50 41 24 47 26 19 18 15 16 21 32 45 62 66 67 67
52 54 58 61 64 68 69 73 69 66 65 69 64 58 50 52 52 40 50 35 45 26 22 23 21 18 41 55 64 68 66 67
45 46 50 55 60 67 71 72 68 70 67 61 58 59 54 54 52 40 45 59 44 33 38 38 30 34 58 68 69 62 59 63
50 51 50 51 57 66 70 70 66 56 53 56 59 61 54 53 51 47 56 62 48 49 54 46 42 45 64 70 68 68 66 62
50 50 50 54 57 59 62 59 55 55 57 59 60 58 53 52 51 57 64 60 62 60 52 54 52 55 64 67 67 68 71 73
48 47 49 52 53 54 55 54 55 58 60 61 58 52 53 52 54 60 60 70 63 56 52 50 56 60 62 61 66 63 67 77
28 26 30 38 43 48 50 52 58 61 62 60 52 52 50 53 59 59 72 64 66 52 58 50 60 56 60 62 62 61 68 75
33 33 36 40 42 43 47 53 59 62 63 53 52 51 49 57 59 67 79 86 93 66 50 59 56 54 60 62 62 68 81 95
31 32 34 34 39 45 50 55 61 68 57 53 50 48 57 60 68 82 94 91 66 52 54 54 49 52 60 62 65 70 80 80

GFSFLT1_850_rhum_021.txt.gz
RH
63 58 64 62 67 75 82 73 72 73 76 92 89 73 62 59 56 53 52 42 32 34 37 38 41 37 32 25 19 20 16 21
67 60 62 65 68 74 74 68 71 78 84 85 71 59 60 57 50 43 35 32 35 38 37 40 35 31 24 14 11 12 13 12
74 69 66 63 58 71 79 73 77 82 80 77 68 56 58 55 50 43 38 37 40 41 40 39 40 36 26 12 7 7 8 18
67 66 68 67 71 58 52 67 68 72 75 75 60 62 59 55 50 44 40 43 46 46 41 42 39 28 12 8 7 6 12 25
64 69 64 61 70 63 35 43 61 74 80 76 62 56 53 48 43 41 41 47 54 44 41 40 32 19 8 7 7 14 30 58
57 60 60 59 68 63 50 59 72 84 83 73 65 58 54 44 49 46 50 54 55 42 39 30 18 9 8 9 21 39 62 64
49 53 62 67 68 64 64 63 67 79 74 67 63 71 66 57 58 55 54 56 54 40 32 19 10 11 29 14 35 53 62 67
48 50 59 60 63 64 70 67 69 74 73 75 69 74 76 66 61 59 58 58 43 37 23 11 44 77 21 32 45 63 64 60
40 45 47 48 53 59 68 70 69 77 79 79 73 81 84 71 64 62 61 47 39 25 13 67 62 17 23 38 50 64 76 68
42 45 48 44 46 52 63 64 72 84 85 80 82 79 81 70 63 64 53 45 32 21 69 73 19 19 19 28 39 63 68 65
44 43 47 46 49 54 58 65 70 64 71 77 74 70 69 64 62 62 48 49 28 63 44 28 34 19 20 40 41 54 59 62
44 47 47 48 54 56 62 69 72 73 73 73 72 68 69 64 58 49 48 36 50 47 40 39 36 36 30 27 52 58 68 68
40 47 52 55 55 58 64 68 64 68 75 73 68 76 71 65 54 53 54 42 46 56 37 48 36 28 30 36 46 57 61 61
47 47 49 51 54 59 65 61 58 75 74 72 76 76 74 60 56 58 50 45 55 49 51 43 47 60 44 46 53 60 66 65
43 52 52 56 59 66 67 66 70 65 72 74 79 74 63 60 61 55 51 51 62 58 56 58 74 52 56 54 59 59 65 67
49 54 57 59 66 70 68 69 70 73 68 75 73 62 63 62 60 53 54 60 62 61 62 92 64 55 57 58 59 61 64 68
41 44 48 46 46 50 63 70 75 75 75 70 61 64 64 60 55 56 56 66 69 66 93 94 55 56 57 58 61 62 66 71
33 33 34 34 36 42 44 48 60 69 66 63 64 66 63 57 56 61 68 68 81 92 96 73 49 52 54 49 54 63 67 68
34 34 35 36 37 39 44 53 60 66 67 69 70 65 61 60 64 70 79 97 96 97 95 56 55 50 50 51 53 63 66 71

GFSFLT1_850_rhum_024.txt.gz
RH
59 57 64 65 69 65 64 62 67 75 78 79 83 86 86 90 72 64 71 74 77 57 38 39 40 41 38 31 23 18 17 23
58 54 60 66 71 65 66 68 66 69 73 75 85 87 91 81 65 66 69 74 58 39 42 41 43 37 31 22 14 10 10 12
61 60 65 65 57 63 66 70 63 70 74 73 80 84 71 63 62 61 64 55 41 43 46 45 39 34 26 16 10 8 8 12
62 66 62 60 54 50 52 60 69 71 72 80 85 83 66 64 58 51 45 42 46 49 49 43 38 29 20 12 10 11 9 18
61 57 60 62 60 57 60 60 63 67 72 82 84 79 67 60 56 53 49 49 51 52 53 42 37 31 16 10 20 35 14 25
53 52 50 53 57 58 58 64 70 69 74 81 82 79 66 60 56 54 53 52 55 56 54 39 36 25 12 47 74 60 23 32
54 54 61 62 61 61 66 68 58 65 75 81 75 78 74 63 59 56 56 52 55 56 51 39 36 17 27 68 67 14 18 38
51 52 54 57 60 58 59 68 64 58 73 72 66 73 76 68 64 73 60 58 58 56 47 35 18 40 62 59 29 23 28 25
41 42 45 47 51 57 60 63 71 60 66 70 68 83 80 73 74 72 71 64 60 56 47 62 45 58 66 60 35 14 36 55
33 38 42 44 46 49 52 58 67 66 69 60 63 76 80 81 80 75 75 67 60 56 50 47 48 60 78 20 35 41 54 62
31 34 40 44 41 45 51 54 58 61 64 59 65 77 71 85 85 82 75 64 60 45 43 43 50 50 26 44 38 36 55 59
32 34 37 39 42 45 44 44 48 55 64 64 62 73 76 89 100 91 73 63 63 51 39 46 45 36 40 29 67 48 55 64
38 36 36 36 36 41 42 44 50 55 59 59 59 60 84 89 84 80 67 63 50 40 45 45 46 37 46 74 42 48 52 51
32 38 38 41 50 47 50 50 52 50 54 56 57 77 85 81 77 76 65 57 46 45 49 49 47 67 87 46 46 50 52 56
34 35 42 56 63 60 58 53 57 62 57 58 63 77 81 79 80 70 61 50 48 55 54 59 65 92 84 57 54 54 56 60
46 48 56 65 68 72 73 68 71 78 84 92 89 84 82 83 74 63 54 55 50 61 60 67 98 96 79 59 60 63 62 62
41 41 40 42 42 43 45 46 52 63 74 79 83 82 83 87 74 55 56 53 58 63 70 98 86 98 82 60 59 59 58 63
34 34 33 32 31 30 31 37 46 61 77 84 81 82 85 90 63 57 58 60 65 76 99 95 99 91 81 59 51 55 50 53
37 38 38 37 37 37 38 43 52 63 76 84 86 85 80 67 69 69 68 73 81 94 94 99 98 90 63 48 50 50 50 55

GFSFLT1_850_rhum_027.txt.gz
RH
54 52 54 60 61 62 70 73 74 64 48 62 68 80 86 88 83 81 80 83 85 86 74 58 39 42 42 34 24 16 14 16
57 51 48 54 59 64 66 66 62 54 59 73 81 80 81 84 81 86 77 82 85 80 65 42 44 44 37 29 18 12 12 17
62 60 60 57 58 65 68 66 61 62 71 74 78 79 83 77 88 83 74 79 81 77 52 48 45 41 35 24 13 11 18 27
66 64 59 57 60 58 58 61 64 61 66 71 73 79 85 86 82 69 67 70 70 64 52 52 46 40 30 16 11 35 56 57
55 54 58 57 57 64 65 63 65 73 67 72 69 69 70 72 68 64 64 61 52 46 51 53 49 36 25 13 47 66 60 47
52 56 54 56 56 57 58 61 65 71 73 70 68 71 76 78 73 64 58 52 48 46 49 53 51 38 28 24 66 66 68 69
50 51 57 57 57 59 61 59 62 63 68 64 69 79 78 84 77 64 58 56 54 52 54 56 50 38 30 59 69 74 80 56
48 50 47 55 55 60 59 63 65 68 73 72 65 83 82 85 78 69 63 61 68 56 55 58 51 36 53 57 61 80 61 15
40 40 43 44 46 50 55 56 60 63 72 71 74 84 78 75 84 81 71 66 74 71 64 59 40 43 66 63 71 48 22 48
36 37 39 40 44 45 47 54 60 58 60 68 61 60 64 66 78 87 77 74 80 74 64 49 42 83 58 59 42 40 48 44
29 33 36 38 42 47 49 52 54 54 60 66 70 67 70 63 81 94 86 81 84 77 60 45 83 52 48 55 44 49 71 37
29 30 33 38 44 49 48 49 52 58 59 59 63 66 66 61 68 95 98 94 93 88 55 76 48 43 54 40 46 75 66 48
28 32 35 39 39 43 45 48 51 53 59 69 60 66 69 64 64 79 93 95 97 84 58 54 41 57 42 51 76 57 42 52
32 36 39 43 46 44 48 52 52 54 58 65 74 73 71 80 84 100 100 100 97 59 48 41 48 51 64 82 92 68 60 53
39 41 48 52 57 56 57 60 60 64 69 75 80 86 93 99 100 94 88 86 77 61 43 47 54 67 96 93 100 74 58 58
56 57 58 62 64 66 66 68 68 69 71 75 79 86 93 95 90 88 82 78 67 45 48 60 65 94 97 94 93 75 71 67
47 44 43 41 38 37 36 35 36 40 49 63 75 83 87 88 88 86 76 67 50 50 59 62 80 100 96 100 89 78 64 57
38 37 35 35 35 35 36 36 38 42 48 61 74 84 88 88 85 86 80 69 56 58 64 89 99 95 95 97 97 87 60 52
40 41 41 41 41 40 41 40 42 51 62 74 84 89 90 91 93 89 73 66 66 84 85 97 98 95 98 99 95 71 57 46

GFSFLT1_850_rhum_030.txt.gz
RH
79 83 85 82 86 92 93 98 98 93 94 82 68 72 94 89 83 84 77 81 87 88 78 78 73 54 41 46 36 26 41 46
67 74 79 84 86 86 89 93 94 96 90 77 72 90 97 91 85 86 85 88 84 84 80 80 69 54 60 38 34 25 24 32
62 66 71 76 81 87 88 88 93 93 83 71 75 84 91 93 82 78 81 79 76 77 80 77 60 58 44 37 31 26 49 50
57 65 69 72 74 79 79 83 88 92 83 76 91 92 83 79 77 75 72 79 73 75 79 75 49 47 43 38 33 22 59 64
49 63 68 71 73 75 79 78 83 90 91 81 86 81 88 81 71 66 73 68 68 78 80 69 45 45 44 38 28 36 50 72
46 49 56 69 73 76 83 85 85 88 94 84 88 87 85 92 67 77 71 65 65 74 72 60 49 50 46 35 26 41 71 60
42 46 53 57 69 75 80 84 83 86 91 68 75 86 90 91 77 69 72 71 68 65 59 54 52 53 47 30 31 71 68 71
43 46 48 55 62 76 80 80 77 82 84 65 64 74 84 64 70 68 78 78 68 60 59 59 56 58 56 32 55 82 76 72
40 43 46 52 63 73 79 72 78 82 73 56 64 68 70 67 68 74 92 89 77 70 63 81 68 63 50 37 83 82 75 63
32 38 45 54 61 73 81 83 78 83 85 84 77 68 64 71 71 74 89 84 79 72 73 88 66 59 32 66 85 72 42 52
34 38 41 48 58 68 82 84 76 83 95 95 93 82 80 67 76 77 76 87 95 81 76 82 70 79 52 91 63 53 78 92
43 44 46 50 58 67 78 86 74 84 88 99 98 98 91 86 63 75 87 100 100 90 82 88 95 63 82 50 42 72 69 83
45 50 54 56 62 68 72 78 79 81 87 96 98 84 85 88 88 94 99 98 100 99 96 99 90 70 65 43 61 74 89 99
45 58 60 51 46 60 70 65 76 78 63 63 72 81 84 90 92 100 99 99 100 100 100 100 72 63 41 60 59 84 98 98
44 56 67 71 73 62 62 64 66 68 71 75 80 85 91 96 98 98 100 100 100 100 100 86 69 48 54 61 78 99 99 95
57 60 68 75 81 80 81 79 80 80 74 76 79 79 85 92 96 98 99 96 99 100 97 66 58 48 59 92 96 98 99 96
60 62 62 62 63 69 51 47 47 45 48 51 60 72 82 86 89 90 90 87 80 70 63 64 56 75 92 98 98 100 99 99
55 61 63 55 40 42 41 41 43 48 55 66 73 79 84 87 88 87 87 77 72 67 61 69 84 65 93 99 99 100 100 99
55 48 42 41 41 40 40 40 44 52 62 72 80 85 87 90 91 90 88 83 80 74 77 66 62 94 98 100 100 100 99 95

GFSFLT1_850_rhum_033.txt.gz
RH
60 64 74 80 90 92 93 97 92 91 84 82 74 66 72 70 87 91 96 91 86 84 82 85 70 76 71 66 64 53 50 48
62 65 66 72 80 82 79 81 84 88 95 78 63 62 70 82 88 86 94 88 86 80 84 84 74 74 68 72 63 49 51 46
51 64 62 66 71 76 74 76 78 78 73 66 60 58 63 75 83 92 93 98 84 70 87 82 77 72 72 65 52 54 51 58
44 52 60 66 66 68 68 71 73 74 71 66 59 58 67 71 88 97 99 84 84 90 85 86 84 73 76 51 42 46 51 62
38 45 51 58 62 69 70 68 67 70 71 62 59 63 64 72 84 92 97 76 72 91 90 91 85 80 70 62 55 55 45 61
33 40 45 50 56 61 68 67 66 67 74 72 64 70 71 71 81 98 96 100 89 94 92 92 90 83 68 59 54 45 36 70
29 32 40 47 51 58 64 65 62 64 70 79 74 74 77 67 77 94 96 96 79 92 89 88 87 80 65 66 58 35 45 75
26 28 33 38 48 59 64 65 62 65 70 77 84 83 80 79 78 88 92 87 72 74 84 87 87 84 68 70 66 69 77 86
28 28 29 34 40 53 64 64 65 63 67 75 80 89 88 86 88 86 77 70 78 92 64 96 91 82 76 89 72 77 74 96
26 27 30 33 36 45 58 64 63 67 68 78 83 88 90 94 94 82 57 55 64 77 92 95 86 76 84 88 85 62 89 90
23 25 29 32 36 41 55 65 65 65 70 77 90 93 98 97 96 71 71 71 87 86 93 87 77 73 82 92 90 74 89 86
31 31 30 33 38 44 52 65 70 68 74 82 90 95 98 99 98 83 91 87 94 100 97 93 85 78 86 96 84 86 78 86
31 37 39 39 42 47 52 63 69 70 78 82 86 95 97 99 94 100 100 100 100 99 99 99 98 86 97 97 84 90 81 94
31 41 46 48 52 55 58 67 69 70 74 76 86 96 100 98 99 99 98 100 100 100 100 100 99 99 99 86 88 74 86 80
25 38 48 51 57 64 68 75 74 74 81 88 92 100 98 100 100 100 100 100 100 100 100 100 100 100 85 82 73 89 91 96
34 39 50 62 69 72 75 89 90 89 88 90 98 100 100 100 99 99 99 98 100 99 99 100 100 89 83 77 88 97 89 99
44 51 58 66 70 74 84 88 87 85 83 86 92 93 96 99 99 97 96 98 96 93 94 99 91 77 69 89 82 94 96 99
48 51 55 59 63 67 73 75 76 78 79 84 85 84 84 84 86 86 85 82 76 73 72 69 66 65 80 74 88 93 99 99
52 54 57 60 62 65 67 69 70 69 71 76 85 86 87 90 90 86 82 80 79 75 72 70 86 97 99 94 93 100 99 98

GFSFLT1_850_rhum_036.txt.gz
RH
72 82 91 84 82 68 63 73 69 53 58 59 65 60 68 68 63 71 71 68 95 81 81 80 82 78 75 68 63 60 54 51
72 76 81 69 78 81 72 72 80 59 78 91 88 71 67 56 72 78 73 75 91 84 87 83 80 76 76 71 64 62 47 50
66 69 76 81 70 82 82 70 73 87 88 70 71 68 60 52 71 81 76 86 86 83 81 86 72 75 75 68 66 58 49 48
58 66 69 74 78 82 86 88 80 78 79 64 76 65 60 60 72 68 67 94 85 87 77 87 82 74 76 70 66 56 55 54
49 58 65 67 72 75 76 73 72 74 77 71 73 64 56 63 71 73 70 80 93 84 94 88 88 85 76 73 74 60 52 56
38 47 57 64 67 70 67 70 71 72 67 68 70 61 56 58 69 79 83 92 87 75 96 92 92 90 82 76 74 73 59 56
34 38 45 55 62 66 70 66 68 66 68 64 68 68 59 65 68 72 77 75 76 92 91 94 92 90 88 84 83 80 69 57
30 34 40 45 51 57 64 68 69 68 66 70 69 66 66 66 71 75 84 82 78 81 74 79 78 88 88 76 98 82 76 66
29 28 36 41 45 50 53 59 62 64 63 66 72 61 69 82 74 76 77 71 62 52 67 85 89 64 77 88 96 84 80 78
28 27 26 35 42 47 52 59 63 63 62 64 65 74 79 69 62 84 83 78 77 77 76 79 80 81 87 93 94 81 87 93
22 26 26 28 32 44 48 51 58 62 63 65 66 76 80 61 62 89 81 63 76 92 86 88 90 96 99 95 91 84 96 94
25 25 24 27 30 33 45 56 63 61 62 64 69 70 74 83 76 91 66 78 92 97 96 92 98 100 95 91 85 89 100 92
26 31 31 30 30 34 42 50 58 62 64 65 68 74 81 85 68 95 100 99 100 100 99 99 97 99 98 91 88 98 93 99
26 34 39 38 38 40 42 47 58 64 62 69 71 79 84 68 86 98 100 100 99 99 100 99 98 100 100 99 95 100 98 100
20 34 42 45 49 51 53 58 64 67 70 72 74 90 90 93 99 100 98 98 100 100 100 100 100 100 99 99 100 96 97 95
22 31 43 49 56 61 67 71 70 71 75 87 90 93 94 98 98 99 97 98 99 99 100 100 100 100 100 100 98 94 87 94
27 31 48 58 67 70 80 84 85 84 87 87 90 98 98 98 98 99 99 99 100 96 94 94 99 98 96 90 86 84 89 96
38 44 55 65 71 81 88 87 86 85 86 82 82 89 88 91 94 97 99 98 90 78 78 79 87 88 81 76 76 81 81 92
47 53 58 64 70 74 76 77 77 73 75 77 79 79 80 83 85 85 85 82 79 76 73 71 71 71 79 91 97 92 97 99

GFSFLT1_850_rhum_039.txt.gz
RH
69 75 93 99 96 87 82 84 85 79 88 81 74 74 69 63 65 58 62 64 64 47 64 81 78 77 76 74 67 62 60 57
64 72 85 98 96 92 88 90 93 88 82 71 68 64 70 66 64 72 66 76 68 58 70 81 80 77 78 72 68 65 62 55
75 72 76 72 72 76 71 70 65 62 60 61 57 58 58 57 66 66 63 65 74 74 70 82 79 81 81 76 74 66 64 57
76 77 69 59 63 60 64 61 57 56 63 60 65 72 70 65 49 49 68 76 68 69 83 83 82 83 80 78 74 71 65 60
66 69 72 57 52 51 50 55 58 57 70 67 67 69 74 65 46 53 70 73 64 68 73 76 72 85 83 79 76 72 69 59
61 64 65 66 62 57 57 60 57 61 66 68 64 58 67 63 58 61 62 75 70 70 71 75 86 89 87 80 81 76 76 76
47 50 58 62 68 69 66 62 67 68 64 68 76 74 75 71 59 60 72 74 81 78 76 82 87 92 91 87 78 85 82 84
46 54 62 61 62 66 69 70 72 71 71 66 60 69 76 71 56 57 63 82 76 73 72 70 73 90 93 89 87 80 93 93
37 39 44 53 54 56 64 68 68 74 73 71 69 62 69 74 61 61 73 77 67 78 75 66 72 87 93 88 92 97 100 100
36 37 38 42 44 50 52 55 61 67 71 71 70 69 66 66 69 63 58 64 58 61 77 72 74 88 92 89 95 97 100 97
32 34 37 35 36 38 43 48 46 47 51 62 68 68 70 71 70 72 66 61 64 71 81 72 86 93 92 98 100 100 100 89
30 31 33 37 34 36 42 51 64 58 74 65 65 66 65 70 74 76 74 83 76 76 93 100 97 98 94 99 100 100 99 89
21 27 28 28 39 47 54 61 52 43 37 69 69 68 68 84 77 86 92 78 100 100 100 99 98 100 96 95 100 100 97 92
23 24 22 26 32 37 46 56 58 55 54 59 76 71 75 60 74 65 76 89 99 99 98 96 96 94 99 100 100 100 96 96
27 28 24 24 32 40 54 63 62 64 69 66 64 70 71 80 80 91 100 98 99 98 96 97 94 91 100 100 100 100 98 99
27 31 34 36 40 47 52 58 62 66 65 65 69 76 87 96 100 98 97 99 99 99 99 99 100 100 100 100 99 99 99 97
20 31 43 46 50 55 60 66 66 65 64 68 75 86 91 93 96 98 98 99 99 99 98 100 100 100 100 99 100 94 96 100
24 39 46 51 54 56 64 72 76 76 80 84 85 87 87 82 76 80 96 100 100 99 96 94 96 99 94 88 87 88 88 88
28 41 54 60 63 67 72 80 83 85 88 89 90 86 74 70 80 87 92 95 89 81 79 80 81 83 83 84 87 88 89 85

GFSFLT1_850_rhum_045.txt.gz
RH
89 97 98 100 99 99 100 100 100 100 96 79 63 77 76 73 55 62 58 73 46 59 59 58 60 66 74 73 73 72 69 62
91 78 98 98 99 99 99 99 98 96 88 85 84 74 85 67 56 62 61 72 61 72 65 55 53 68 66 74 76 77 73 68
79 78 87 98 99 99 100 98 100 91 80 81 78 74 67 60 51 50 49 53 47 55 59 59 62 70 75 77 77 75 72 70
71 67 62 79 82 89 97 99 96 92 85 82 78 77 65 58 51 51 49 49 53 58 63 70 81 77 77 77 79 78 78 78
66 65 58 48 59 78 83 95 96 92 90 89 83 80 71 57 51 49 48 49 48 53 69 78 84 81 77 80 82 82 82 82
55 57 52 38 43 53 69 77 87 93 94 88 80 76 72 67 57 51 46 51 49 53 72 68 73 76 83 82 81 87 88 89
51 54 61 52 44 46 54 63 68 74 73 74 69 62 63 68 65 65 58 53 50 50 65 66 68 77 74 72 75 75 83 93
53 54 56 53 49 45 46 47 54 68 72 66 65 66 68 70 63 61 53 52 48 46 58 61 46 73 77 82 79 78 73 75
52 48 49 49 48 43 40 41 42 52 58 55 53 56 64 64 56 56 49 45 44 44 46 47 49 65 89 76 92 83 79 79
45 51 48 48 47 45 36 33 34 39 40 44 50 49 47 48 52 48 46 50 53 51 68 75 63 84 74 91 92 68 83 93
40 49 48 45 44 45 49 39 34 30 34 39 42 47 50 48 47 52 61 64 60 63 80 89 84 83 94 94 80 76 80 99
39 36 43 43 45 48 49 52 46 45 43 41 44 46 54 61 63 65 63 69 76 79 91 95 76 90 96 100 96 89 94 99
36 38 36 46 48 54 53 47 51 53 55 58 59 56 57 63 66 66 74 79 81 81 91 97 57 81 90 100 99 96 99 99
26 33 36 38 42 48 54 50 45 52 62 68 77 76 71 68 67 58 64 83 88 93 72 75 80 69 76 92 100 100 100 100
20 22 24 28 31 34 42 41 38 44 60 69 74 77 77 73 75 76 77 84 90 69 86 59 74 73 80 100 100 100 100 100
23 24 20 21 26 29 35 36 38 44 52 63 67 74 82 80 78 82 80 99 97 87 84 87 84 98 99 100 100 100 100 97
22 26 24 22 25 25 24 31 33 39 43 47 64 74 82 85 84 78 83 98 100 100 99 100 100 99 99 100 96 86 89 100
17 20 25 26 25 24 24 26 27 34 43 49 62 72 77 82 85 76 85 97 100 100 100 100 100 98 97 91 90 99 100 98
21 18 17 22 27 31 28 32 34 41 51 57 65 78 82 85 93 97 100 100 100 98 98 98 98 96 93 99 99 100 99 100

GFSFLT1_850_rhum_048.txt.gz
RH
81 85 90 98 98 100 97 100 100 100 93 99 88 89 77 58 67 56 54 52 53 54 61 63 58 67 68 71 73 68 62 59
82 79 98 98 97 96 100 100 100 97 93 100 89 69 62 57 57 73 65 61 59 67 64 56 64 67 65 73 75 75 74 73
84 92 91 98 98 98 98 100 99 100 94 100 90 74 73 60 71 80 64 70 66 70 54 57 62 63 65 65 75 76 77 79
81 91 80 98 99 98 96 92 96 99 100 100 94 84 75 61 80 75 63 54 49 65 66 65 64 68 70 70 73 78 78 78
64 73 75 67 80 91 95 98 92 95 96 93 88 76 70 67 75 63 61 57 50 60 64 62 52 65 80 81 84 82 82 81
55 53 60 59 63 72 80 89 96 90 84 81 79 76 77 68 72 58 53 51 51 50 56 54 57 66 76 79 83 80 81 87
54 55 57 63 61 70 77 84 84 96 93 86 81 80 73 71 62 59 57 52 51 50 51 51 52 61 65 69 74 77 80 84
50 56 56 56 55 48 55 67 73 84 90 89 86 84 79 74 69 63 61 56 50 48 47 46 48 55 60 69 63 75 82 87
39 42 48 48 50 50 40 40 52 63 68 65 70 76 74 75 70 70 68 66 59 55 54 49 51 51 59 63 54 72 97 100
34 39 41 44 46 46 45 38 34 38 45 50 53 61 67 65 63 61 67 68 60 61 55 48 48 53 60 80 84 77 88 96
36 39 41 39 39 41 44 44 40 31 36 42 46 47 52 60 65 66 68 61 58 51 46 49 52 60 71 82 97 80 78 86
28 31 34 38 44 40 39 43 44 42 36 35 40 44 44 43 43 42 48 47 42 48 53 53 61 71 84 98 100 86 83 100
26 25 28 37 40 46 41 41 43 42 45 41 39 37 38 45 48 47 46 53 52 52 53 64 69 71 91 95 100 90 90 99
24 28 27 27 30 36 38 43 41 44 47 51 48 44 44 42 41 42 48 56 56 70 67 76 81 72 81 93 82 88 73 89
19 22 20 24 28 32 33 32 37 47 50 52 54 55 54 53 54 54 50 55 59 68 75 81 88 82 84 66 73 78 91 99
17 18 16 19 24 29 27 25 32 36 44 49 44 50 59 63 65 68 68 71 74 81 87 98 99 83 81 63 72 85 100 98
15 15 16 20 19 19 22 20 24 30 35 34 39 48 58 65 73 81 84 84 85 92 100 99 100 100 100 100 89 99 100 100
17 16 16 19 20 19 21 20 23 28 33 39 43 51 59 71 78 88 91 91 97 100 99 100 100 99 100 100 100 100 100 98
20 20 18 17 18 20 22 25 27 30 41 44 47 51 61 79 87 91 94 100 100 100 99 99 100 100 100 100 100 100 100 99

GFSFLT1_850_rhum_051.txt.gz
RH
81 82 96 100 100 100 100 100 100 100 95 96 100 97 90 78 70 71 62 59 60 59 60 62 62 65 69 71 69 56 45 44
69 74 89 97 98 100 100 100 100 100 100 100 99 91 84 84 68 72 69 59 57 58 58 61 62 64 65 70 73 72 67 63
78 76 70 99 97 93 100 100 100 100 98 95 88 84 79 79 65 70 77 60 58 57 58 62 68 67 68 64 73 74 76 75
77 77 71 67 98 96 94 97 99 99 96 89 86 86 94 90 80 78 68 58 60 58 60 69 70 60 60 62 59 64 75 77
63 68 69 62 64 96 99 99 100 100 99 100 93 87 81 80 64 60 62 69 69 58 67 68 59 62 60 61 75 74 77 79
59 53 53 63 56 69 90 98 100 100 99 96 97 89 72 64 57 54 55 62 59 59 57 66 64 56 67 68 64 64 74 84
57 55 53 58 59 55 72 81 91 95 100 98 99 91 79 73 74 58 62 82 63 64 60 56 57 56 62 69 70 61 71 80
54 59 58 54 60 52 57 70 77 86 87 88 94 95 81 69 66 62 64 70 66 64 62 58 55 55 52 54 63 65 68 72
44 38 50 51 50 56 47 52 63 70 78 83 81 81 85 82 77 67 68 73 63 61 55 53 53 52 51 51 52 57 63 70
34 45 42 50 48 46 47 40 40 52 53 62 70 78 78 77 78 73 72 66 66 62 57 56 54 54 52 54 51 50 58 66
35 40 39 41 46 48 49 45 37 28 35 42 46 51 62 73 76 70 67 63 61 60 60 57 60 60 56 58 57 55 62 76
30 34 35 39 43 48 49 50 48 42 32 30 38 41 47 51 48 44 42 46 49 48 48 54 54 56 55 57 54 51 77 85
22 30 36 40 45 45 43 47 50 47 45 40 33 35 40 40 39 40 47 50 46 51 50 46 46 54 54 50 50 65 93 85
19 22 28 31 39 40 38 40 39 47 52 51 47 42 38 34 34 35 40 42 42 50 57 54 59 53 52 57 72 83 96 78
17 17 18 22 29 35 32 33 40 46 48 50 54 52 47 45 40 41 40 38 43 45 46 50 54 66 64 73 86 95 100 90
19 17 16 17 20 26 29 31 33 39 47 49 41 46 53 55 54 50 46 46 46 46 45 49 53 58 65 72 92 100 100 100
20 18 17 17 17 18 22 19 21 26 30 30 38 42 48 52 57 60 64 63 57 56 57 61 67 71 78 89 98 100 100 88
20 20 19 17 16 15 17 16 19 23 21 26 33 38 38 42 53 69 73 77 83 81 82 86 87 91 95 97 100 100 100 100
17 16 16 18 18 17 18 20 19 22 23 23 29 34 36 43 55 68 81 91 97 99 99 100 100 98 99 100 99 100 100 100

GFSFLT1_850_rhum_054.txt.gz
RH
73 96 96 92 97 98 100 95 93 100 100 97 96 96 91 92 73 71 65 55 54 42 47 44 58 69 51 52 61 52 56 53
74 90 83 99 98 99 99 100 100 98 96 99 100 96 90 73 75 65 84 61 55 49 61 47 61 74 74 64 67 53 60 52
72 86 94 85 97 98 100 98 100 100 91 98 99 91 87 78 74 69 80 69 57 60 71 59 59 76 75 70 72 71 72 59
67 80 87 96 100 98 99 100 98 99 99 100 100 100 97 94 77 91 76 80 70 77 62 76 69 70 66 67 66 80 78 83
59 71 81 87 91 100 95 100 100 98 98 100 98 95 94 84 73 68 88 97 76 84 61 63 63 65 70 83 61 62 82 78
56 65 70 80 86 97 100 96 98 99 100 98 97 96 92 82 86 85 93 74 76 66 64 62 68 74 64 75 59 59 91 87
54 62 70 75 84 91 99 99 98 100 99 99 87 83 88 84 77 75 74 76 76 61 60 63 73 73 60 61 63 58 65 81
51 59 68 71 81 89 94 93 98 98 99 100 96 92 74 92 86 78 70 74 69 66 67 68 72 70 65 65 68 61 66 76
46 52 63 69 74 77 59 89 94 99 99 99 100 100 96 95 88 80 69 60 57 63 62 56 58 61 63 63 60 58 58 53
41 47 58 66 74 57 50 47 78 90 97 98 97 100 100 97 85 77 68 61 64 61 57 60 55 58 63 61 58 60 74 88
31 43 54 64 71 74 50 56 73 80 90 96 97 98 99 99 97 88 72 69 62 68 59 67 68 64 58 56 56 61 81 89
32 41 51 61 68 76 54 55 81 79 85 92 96 95 96 98 96 93 91 80 70 69 64 59 63 56 56 69 82 76 77 76
27 42 52 59 65 69 74 63 71 69 78 86 86 96 97 96 77 65 67 72 83 82 79 73 72 80 80 82 87 81 92 96
24 36 48 56 60 65 67 68 48 68 80 73 65 65 74 59 47 50 63 74 91 92 89 88 87 82 88 71 63 69 89 74
20 23 37 48 54 59 63 66 55 62 79 80 70 52 38 32 35 46 48 45 53 51 59 67 73 64 68 67 62 72 95 58
22 22 23 32 48 58 61 65 68 56 73 79 56 45 50 53 48 44 44 46 46 49 61 66 73 91 84 96 95 78 72 73
23 22 24 25 26 45 56 58 54 57 53 46 62 70 56 54 57 66 69 55 54 61 71 87 87 89 64 61 70 68 69 81
28 27 27 30 23 21 22 29 62 53 40 49 59 58 57 59 62 64 70 88 96 93 96 96 98 99 100 82 68 80 89 98
51 43 36 29 29 28 24 41 54 58 41 53 61 52 52 72 71 74 92 96 97 100 100 100 100 100 100 100 100 100 100 100

GFSFLT1_850_rhum_057.txt.gz
RH
49 60 64 84 98 95 95 97 85 90 98 100 100 100 99 94 67 79 86 86 66 58 61 61 62 59 60 62 63 61 56 54
47 66 70 84 100 98 98 96 92 98 99 100 99 89 97 80 76 74 59 62 54 47 50 48 62 65 62 62 65 61 57 55
49 65 76 83 99 98 100 99 99 98 99 100 93 94 94 71 59 68 60 60 51 49 48 51 62 68 69 75 71 68 56 55
47 59 74 84 93 98 95 99 100 97 100 99 97 99 97 89 77 70 69 64 79 57 62 76 52 68 79 84 86 79 68 68
40 53 66 82 84 99 98 99 99 99 97 99 96 97 98 84 77 69 73 65 59 57 74 80 74 71 75 88 90 89 75 69
37 47 58 70 75 96 99 99 99 99 100 95 99 99 90 81 80 73 72 77 63 75 76 84 85 84 80 80 88 84 83 69
34 42 53 62 70 83 99 93 97 98 99 98 99 98 95 90 80 76 81 86 79 83 85 85 81 83 82 80 81 83 78 79
32 40 49 56 67 76 94 99 98 98 98 98 99 99 96 95 88 79 76 88 92 81 80 86 78 70 63 73 73 76 78 72
31 37 46 52 64 73 79 90 97 99 99 100 100 100 97 100 97 86 73 63 65 62 76 82 68 66 62 64 62 81 70 68
28 33 41 50 58 70 75 75 82 95 98 99 98 95 98 98 96 86 84 77 61 58 64 68 66 60 58 64 70 79 77 75
22 29 35 46 54 62 76 71 69 78 94 99 98 95 92 87 86 87 82 80 68 74 59 64 64 60 64 68 67 66 72 75
20 23 29 40 50 58 72 76 66 65 79 93 96 97 96 96 94 86 91 89 85 83 75 71 72 74 76 82 75 72 76 75
20 24 32 38 48 54 64 76 72 65 65 80 86 88 90 94 90 89 90 92 88 85 78 74 78 79 82 83 84 86 85 85
17 21 32 40 46 51 58 72 74 69 67 70 79 82 88 86 83 89 91 90 92 90 89 89 84 87 88 88 88 88 88 86
18 18 20 31 42 48 53 58 71 72 69 70 75 69 56 60 70 79 83 89 91 92 91 91 90 90 90 90 88 87 86 87
26 24 21 21 27 41 48 53 58 70 69 69 71 66 66 81 85 86 85 89 84 85 89 91 90 92 89 89 89 84 84 85
38 38 33 28 26 24 38 47 53 61 70 70 70 76 84 84 85 86 88 88 92 92 87 89 92 92 88 86 88 88 89 86
47 48 47 44 38 31 31 37 50 55 63 69 70 73 79 83 87 88 90 88 92 91 89 90 87 90 90 85 88 91 95 96
50 51 53 52 48 42 37 30 37 47 55 63 67 71 74 79 85 87 88 90 90 90 93 93 92 93 92 92 96 94 96 96

GFSFLT1_850_rhum_063.txt.gz
RH
43 43 49 58 69 76 88 96 98 99 91 99 100 100 98 100 95 89 80 77 74 70 70 69 66 71 65 76 72 63 67 69
43 44 48 58 72 75 98 92 100 96 100 98 98 100 100 100 100 96 88 76 78 96 79 78 76 71 71 77 68 60 63 66
44 45 48 55 63 77 94 98 88 92 87 88 98 94 96 94 99 100 92 99 93 88 79 76 78 79 78 69 62 63 62 60
45 47 49 55 64 74 87 98 94 89 97 99 99 100 100 100 100 99 91 83 94 86 75 80 78 77 78 66 62 63 61 62
42 48 50 52 62 76 87 98 99 92 100 98 98 97 98 99 97 96 81 66 90 80 82 81 82 73 61 60 61 58 54 62
40 43 47 49 56 70 78 99 97 99 98 98 99 99 98 95 85 99 96 77 76 74 74 66 50 49 54 64 59 51 48 59
35 40 48 53 55 66 79 85 98 98 96 98 98 93 86 84 82 74 72 63 69 63 65 47 48 52 63 60 46 49 52 58
45 48 53 58 57 63 74 81 97 98 99 93 93 90 83 83 80 71 71 78 72 60 58 50 48 48 56 59 54 55 54 76
42 43 45 53 56 59 66 80 82 98 97 98 96 94 93 88 87 72 63 58 60 59 56 53 52 62 66 58 69 77 66 75
35 42 44 47 55 56 56 69 74 96 98 98 99 98 94 92 89 82 62 56 60 64 72 64 59 57 75 76 77 73 77 78
39 39 41 45 44 49 55 60 62 55 97 97 98 98 98 98 93 86 75 59 60 64 63 64 70 66 60 64 73 74 72 74
31 40 37 38 43 51 58 60 64 65 61 93 98 98 97 98 99 91 87 83 80 66 61 59 59 60 60 62 64 65 66 69
34 39 51 54 46 54 55 60 62 63 58 67 81 100 99 98 98 99 99 90 86 80 72 64 64 60 60 63 64 68 70 69
38 40 46 55 68 71 55 59 62 66 67 65 70 79 88 99 100 100 100 100 89 87 86 80 77 64 63 69 61 65 70 74
46 50 49 50 51 57 75 82 72 62 68 69 66 65 68 70 82 100 100 98 97 90 89 82 79 78 76 71 62 61 68 74
52 55 53 52 51 49 54 57 62 83 73 63 64 63 63 65 69 70 86 97 92 96 91 86 82 78 74 69 67 69 73 78
52 50 49 58 55 53 57 57 54 60 79 78 72 66 65 65 66 70 73 70 69 95 89 94 98 92 80 80 81 81 81 80
58 58 55 47 46 48 48 50 52 55 63 68 82 76 71 66 67 73 77 77 78 76 83 93 92 95 95 96 93 93 90 87
62 64 57 51 49 44 43 45 51 53 54 63 62 83 86 77 70 72 73 78 89 88 86 88 97 97 100 99 99 98 93 90

GFSFLT1_850_rhum_066.txt.gz
RH
40 40 47 61 64 71 62 84 87 93 94 88 87 95 96 96 92 84 78 89 81 78 81 53 42 37 57 60 55 58 62 68
43 41 48 65 68 72 64 89 96 95 100 94 99 98 94 95 96 89 86 79 79 78 79 59 46 60 71 75 72 68 73 69
44 44 50 62 60 71 67 74 98 99 100 100 100 99 98 100 100 100 92 83 88 73 68 71 57 50 64 75 73 71 71 68
44 46 48 58 64 66 63 58 97 97 100 100 100 100 100 100 100 100 95 93 86 76 64 78 67 70 66 74 73 68 66 70
41 46 50 54 62 66 61 65 98 98 99 96 92 88 98 98 99 99 100 98 87 81 86 89 75 74 73 77 75 63 62 68
41 43 42 50 60 62 62 65 95 96 100 97 98 91 91 95 100 99 100 99 91 94 95 91 81 81 86 80 73 64 60 65
36 44 45 52 62 64 66 63 89 98 96 99 95 97 90 100 100 100 99 100 98 95 89 85 87 83 82 83 69 66 62 62
50 49 47 52 58 65 68 69 62 98 98 99 99 98 97 90 98 98 97 93 88 92 83 88 89 85 77 72 66 61 61 52
45 41 41 46 54 63 66 66 62 75 98 98 100 98 100 90 92 82 79 77 70 73 84 80 84 70 65 64 60 58 50 51
44 42 40 43 51 54 58 62 61 61 76 98 97 100 99 89 84 77 74 76 81 76 70 68 68 57 51 52 60 63 55 49
42 39 38 40 43 51 59 63 59 57 57 80 98 97 96 92 83 82 83 79 65 65 66 63 61 57 47 53 50 53 58 69
60 60 59 60 60 54 55 61 66 69 69 59 82 98 96 94 95 93 88 87 76 69 67 62 56 56 52 51 52 57 55 66
53 57 63 68 77 82 81 82 71 66 70 67 60 69 97 98 98 98 99 92 85 76 68 66 59 58 61 54 56 57 65 68
60 65 67 75 80 87 87 86 85 86 90 82 73 67 67 71 88 97 98 97 100 93 83 68 62 62 62 62 62 65 65 62
60 58 59 62 67 74 88 93 91 96 91 85 84 80 72 66 66 67 73 94 98 98 99 94 90 85 79 68 64 61 62 64
64 60 53 45 44 49 54 60 69 87 98 96 89 86 83 81 82 83 78 70 78 98 99 99 95 88 86 84 78 71 65 69
63 59 49 43 39 45 48 47 52 63 82 98 100 100 97 89 87 85 84 81 82 82 87 98 99 80 76 82 88 90 88 89
52 50 53 49 42 44 42 49 55 56 60 70 84 96 100 100 100 98 90 88 87 86 83 86 92 87 61 67 76 86 89 88
52 55 55 48 44 46 48 43 42 46 51 56 62 67 77 95 99 100 100 98 95 89 83 80 83 78 70 66 77 91 93 91

GFSFLT1_850_rhum_072.txt.gz
RH
32 38 42 50 54 57 64 63 66 92 86 82 82 97 99 100 99 97 100 100 95 99 94 82 81 61 92 92 82 77 76 74
30 41 48 52 59 61 64 62 59 94 82 87 86 99 100 99 99 99 100 100 96 94 89 86 64 49 59 70 78 76 78 80
31 40 48 51 57 59 63 61 54 95 99 91 85 82 100 98 100 99 98 97 99 96 86 86 59 45 55 61 65 73 78 80
31 36 42 48 59 57 60 60 55 86 99 94 89 90 100 100 99 100 100 91 84 80 87 88 56 38 36 50 63 66 73 80
30 39 42 45 50 59 59 61 59 71 100 85 83 84 98 98 99 100 100 100 99 95 90 86 80 43 35 33 51 52 73 76
28 28 31 43 49 56 60 66 62 56 100 96 91 92 92 96 90 96 100 100 100 100 97 84 99 80 46 26 25 46 76 73
36 48 51 49 49 57 62 64 63 51 79 99 98 94 93 90 94 97 100 100 100 100 98 100 93 88 60 32 34 42 73 68
22 48 55 51 47 56 60 61 60 46 61 98 99 99 99 98 99 98 99 100 99 99 99 97 92 95 80 48 62 55 53 67
22 29 42 44 52 54 56 59 61 51 55 91 100 100 100 100 96 96 95 96 98 100 100 97 94 93 93 82 56 72 73 72
27 40 52 52 55 55 58 63 66 58 53 70 91 98 100 99 99 99 99 99 99 95 100 100 97 94 99 93 87 79 82 82
60 77 84 89 85 72 68 64 65 61 60 59 69 89 99 100 100 97 96 99 99 99 100 100 100 100 99 97 97 87 90 87
85 99 100 100 100 98 85 72 69 72 71 69 71 76 85 94 98 99 99 100 100 99 98 98 98 96 95 100 100 97 90 76
100 100 100 99 100 99 90 76 76 78 80 82 81 80 79 79 88 88 91 98 100 100 100 100 96 95 89 86 89 92 93 96
100 100 100 99 100 100 100 99 96 96 97 96 91 89 87 80 74 76 84 84 86 95 98 99 100 98 96 91 87 86 86 85
100 100 100 100 100 100 100 100 100 98 98 98 99 99 97 96 92 88 85 80 84 87 88 90 88 91 97 95 91 90 90 85
82 88 93 96 96 97 98 96 99 96 100 100 99 99 100 100 100 99 100 98 94 91 90 91 94 98 100 100 99 97 88 87
81 71 66 67 70 74 80 82 98 100 98 99 99 100 100 100 99 99 99 100 100 100 100 100 100 98 95 94 95 99 100 100
89 82 73 67 58 55 54 57 65 68 77 88 96 97 98 99 98 99 100 100 100 100 100 100 100 99 99 100 100 100 100 98
85 84 78 71 64 60 56 54 55 52 49 49 51 55 63 73 87 93 96 94 97 99 100 100 100 100 100 100 100 100 100 100

GFSFLT1_850_rhum_075.txt.gz
RH
14 14 35 51 55 53 52 60 60 77 84 91 87 94 96 99 97 98 99 100 100 99 98 92 96 97 99 95 86 82 78 78
17 17 32 49 51 54 53 60 65 78 92 91 89 92 99 95 96 100 92 99 100 100 98 97 96 94 85 89 87 82 83 81
18 19 27 48 45 50 55 57 66 79 70 95 98 94 97 98 100 98 88 98 100 99 99 99 93 94 84 92 89 84 84 81
16 17 22 47 46 47 53 55 64 71 89 99 99 100 100 100 98 98 89 100 100 99 100 93 86 89 71 86 85 85 85 80
17 18 26 35 46 51 57 54 64 74 98 97 97 99 98 98 99 100 100 98 100 100 100 96 90 88 65 64 81 85 77 76
18 17 31 44 53 52 61 58 65 70 94 96 99 99 98 98 99 100 100 98 94 94 83 77 87 81 56 44 49 72 76 76
21 27 33 44 57 58 64 60 65 75 87 98 95 89 93 95 98 99 99 100 100 100 93 86 82 85 52 42 46 59 70 72
26 36 41 53 49 53 64 67 66 75 81 99 97 95 96 93 89 92 100 98 99 100 99 99 88 96 84 53 50 43 54 62
26 39 49 49 61 60 70 66 66 72 66 91 96 95 97 96 96 94 94 94 98 100 100 98 100 91 90 96 60 39 34 36
28 52 67 65 89 92 81 71 66 69 62 76 93 97 96 97 98 98 96 94 93 90 100 100 100 99 96 97 80 52 49 51
48 74 82 96 98 100 90 80 67 68 65 69 82 88 100 98 98 97 96 98 100 98 98 94 99 100 99 100 100 76 58 72
100 100 100 100 99 98 100 90 74 69 65 65 71 77 91 99 98 98 98 97 97 99 96 99 99 100 100 99 99 100 89 64
100 100 100 100 100 100 99 96 84 74 75 74 76 79 83 92 96 99 100 100 99 98 97 97 96 98 100 100 93 92 94 96
100 100 100 100 100 100 100 100 100 99 94 90 91 88 87 85 88 90 97 99 99 98 100 99 98 99 97 90 92 94 92 93
100 100 100 100 100 100 100 100 100 100 100 100 99 99 100 100 97 94 93 95 97 96 94 92 94 95 91 89 91 90 89 88
99 100 100 100 100 100 100 100 100 98 100 100 99 99 99 99 100 100 100 100 98 97 96 94 93 92 91 90 89 90 94 96
91 86 86 91 98 99 100 100 100 99 98 99 100 100 100 100 100 99 100 100 100 100 100 100 100 100 97 99 100 100 100 98
80 76 76 72 71 72 73 81 91 94 76 93 98 98 99 100 100 100 99 99 100 100 100 100 100 100 99 100 100 100 100 100
87 78 72 82 85 76 68 54 48 45 56 61 67 77 86 94 97 97 96 97 98 100 100 100 100 100 100 99 99 99 100 100

GFSFLT1_850_rhum_078.txt.gz
RH
16 27 45 59 69 87 54 46 55 58 61 68 80 82 86 91 93 92 92 96 99 99 99 93 88 100 84 98 97 94 86 81
16 24 49 62 74 86 53 49 58 60 62 78 94 99 94 96 95 96 100 100 100 99 98 100 100 96 89 94 98 94 92 91
15 26 52 62 75 83 54 51 59 61 63 79 95 85 98 91 91 92 92 97 96 100 94 99 100 100 93 93 97 97 88 94
15 27 51 64 72 80 67 64 70 63 78 84 88 82 100 95 96 98 97 93 92 100 99 98 100 98 94 99 98 96 90 92
17 20 44 58 69 88 88 96 86 86 97 79 72 88 98 94 93 92 88 85 94 99 96 100 98 100 99 91 100 95 87 95
18 21 32 54 68 88 94 98 87 96 97 93 95 87 99 93 96 97 98 90 94 100 99 100 99 92 96 86 98 99 94 86
23 25 42 55 73 92 97 99 90 95 96 85 88 89 97 99 98 98 100 99 96 100 100 100 95 90 87 90 81 85 93 96
29 40 51 61 80 98 87 97 92 82 92 96 95 99 88 89 96 98 99 99 100 95 96 99 92 94 95 92 66 67 84 92
32 46 56 65 83 99 96 98 98 76 94 96 91 90 90 98 95 96 95 100 99 98 99 99 92 85 89 82 64 57 53 64
41 50 62 70 84 98 100 100 95 72 72 96 95 94 92 93 92 90 90 90 93 90 96 100 100 100 90 93 68 55 53 61
58 64 75 77 95 99 100 100 91 76 70 76 100 99 94 91 94 95 97 88 93 94 93 95 100 100 98 98 94 85 81 65
83 82 84 91 98 99 99 100 94 78 68 96 100 99 98 96 95 95 92 89 93 90 95 97 99 99 100 88 87 87 91 80
100 100 99 98 99 100 99 99 100 98 92 98 95 96 98 97 96 94 96 94 94 96 97 98 94 98 100 100 100 100 99 99
100 100 100 100 100 100 100 100 99 99 100 100 99 99 88 89 93 96 95 96 97 99 99 98 98 99 100 99 100 100 99 96
100 100 100 100 100 100 100 100 100 99 100 100 100 100 100 99 100 97 95 95 99 98 98 99 98 98 98 99 99 98 96 91
100 100 100 100 100 100 100 100 100 100 100 100 100 100 100 100 100 100 100 99 99 100 99 99 99 100 99 98 99 99 97 92
100 100 100 100 100 100 100 100 100 100 100 100 100 100 100 100 100 100 100 100 99 100 100 100 99 100 99 99 95 96 97 99
100 100 99 96 94 96 99 100 100 100 100 99 100 100 100 100 100 100 100 100 100 100 100 100 100 100 99 99 99 100 100 100
97 100 100 92 80 73 69 66 70 71 76 82 90 94 90 98 100 100 100 100 100 100 100 100 100 99 100 100 100 100 100 99

GFSFLT1_850_rhum_081.txt.gz
RH
10 13 17 26 38 56 75 97 97 93 48 42 47 49 79 84 84 90 92 95 99 99 95 84 84 83 98 99 89 91 85 76
12 13 18 31 42 60 79 94 97 93 53 44 40 51 89 73 84 86 87 90 98 99 99 94 94 88 97 98 88 91 77 71
13 13 20 40 48 62 78 94 97 84 75 57 45 81 95 89 89 86 85 87 85 94 97 98 98 97 98 99 92 88 80 79
13 13 19 44 49 64 76 92 97 77 88 73 66 80 97 88 90 92 87 90 90 94 88 94 94 96 96 90 85 86 85 85
15 12 18 40 48 62 72 86 94 95 88 72 78 98 97 99 97 93 84 95 97 95 96 99 89 98 100 71 87 86 82 80
15 14 13 33 49 65 74 82 87 92 93 88 92 86 97 99 100 93 90 90 87 84 99 100 100 99 99 96 88 88 85 82
16 12 12 25 45 64 78 81 83 87 89 88 88 86 95 99 99 95 93 97 86 81 99 100 99 100 98 98 83 77 84 87
22 18 17 24 45 68 79 79 86 86 89 91 90 89 100 86 98 94 93 98 95 88 100 100 100 100 97 99 93 83 86 88
34 24 23 34 48 72 78 78 92 87 89 91 90 89 98 98 100 99 92 92 99 88 98 100 100 100 96 98 91 88 89 90
53 30 39 43 60 92 89 79 95 96 89 87 87 91 98 100 98 94 100 96 97 95 99 90 97 100 95 92 92 99 93 86
89 42 48 54 76 98 95 92 97 99 92 87 97 99 100 98 95 90 85 86 90 92 91 95 99 98 96 98 97 97 77 68
99 87 66 78 99 98 99 99 98 98 99 96 98 98 99 94 94 96 88 99 94 93 95 96 97 99 100 99 95 91 85 67
100 100 100 100 99 99 100 99 99 99 100 99 98 99 98 96 95 99 96 95 92 95 94 96 99 100 100 100 100 100 98 94
99 100 100 100 100 100 100 100 100 98 99 98 99 99 96 94 89 89 87 87 89 95 98 99 98 99 99 100 100 100 92 92
100 100 100 100 100 100 100 100 100 100 100 100 100 99 100 100 100 98 93 92 95 92 94 95 99 100 100 100 100 100 100 99
98 100 100 100 100 100 100 100 100 100 100 99 99 100 99 99 97 95 100 100 100 99 98 99 99 99 99 99 100 100 99 100
94 99 100 100 100 100 100 100 100 100 100 100 100 100 100 100 100 100 98 93 93 100 100 100 100 100 99 96 97 99 98 91
90 97 99 100 100 100 100 100 100 100 100 100 100 100 100 100 100 100 100 100 100 100 100 100 100 100 99 96 96 100 98 99
97 95 96 100 98 98 99 99 100 99 100 100 100 100 98 99 100 98 100 100 100 100 100 100 100 100 100 100 100 100 100 100

GFSFLT1_850_rhum_084.txt.gz
RH
15 14 12 11 15 26 54 62 74 78 99 73 42 34 45 55 77 86 94 96 92 87 96 93 86 73 83 91 98 100 94 97
14 12 10 11 16 41 57 64 71 84 97 60 40 36 50 54 96 100 98 93 90 95 99 95 90 84 78 86 99 94 91 86
16 12 11 15 27 42 57 68 80 93 91 55 54 53 57 65 63 90 84 87 90 100 97 98 92 92 89 90 94 97 99 85
17 15 13 21 32 50 63 73 89 95 88 79 76 85 90 99 98 95 80 84 92 92 97 98 99 99 99 90 99 92 86 90
16 16 13 26 30 55 66 82 92 97 90 85 71 59 65 75 86 89 92 94 96 95 97 90 98 83 98 97 99 89 87 92
15 16 14 31 33 51 66 80 90 93 94 90 80 67 75 74 86 91 100 98 94 98 98 98 91 91 96 100 100 97 92 87
16 17 15 28 40 54 65 78 89 91 94 92 79 78 86 86 92 96 99 98 90 92 89 94 100 99 94 100 100 87 86 90
58 44 16 16 41 53 66 79 86 88 90 93 87 84 86 88 87 99 100 89 86 85 79 85 96 100 96 97 97 94 89 86
77 71 40 23 48 60 72 79 81 87 88 89 89 87 82 90 93 91 90 83 87 87 83 96 100 100 99 100 100 92 92 90
88 79 54 27 46 64 73 78 78 84 89 90 91 89 86 91 92 96 89 86 86 90 88 98 99 100 99 100 99 95 90 81
99 99 90 56 53 69 78 75 77 84 84 88 88 90 92 90 94 93 98 97 95 92 92 97 100 100 100 100 99 91 91 93
98 99 100 100 88 80 76 85 91 80 91 86 90 94 94 93 90 95 90 91 94 94 95 93 92 98 99 95 96 97 92 91
100 100 100 100 100 100 100 95 95 87 99 88 91 99 94 91 90 87 86 95 88 91 95 96 97 97 100 99 98 97 98 100
98 99 100 100 100 100 100 100 96 93 99 94 98 98 96 91 93 93 93 88 83 92 93 98 96 96 100 100 100 98 96 96
97 98 100 100 100 100 100 100 100 100 100 97 97 94 97 97 89 90 90 89 89 93 99 100 100 99 100 100 100 100 100 100
99 96 99 100 100 100 100 100 100 100 100 99 99 100 99 100 100 96 91 96 99 96 99 99 100 100 100 99 100 100 100 99
99 99 95 98 99 99 100 100 100 100 100 100 98 100 93 98 100 99 99 99 96 100 100 100 100 99 99 100 100 100 100 100
100 98 98 95 99 99 100 100 100 100 100 100 100 100 100 100 100 100 98 92 97 99 100 100 100 100 100 100 97 94 98 100
99 99 100 96 96 99 100 100 100 100 100 100 100 100 100 100 100 100 100 100 100 100 100 100 100 100 100 100 100 100 97 99